Theta_e
316 316 317 322 320 331 338 342 342 346 345 343 344 344 344 342 339 333 334 338 327 325 330 333 330 332 333 332 324 323 323 322 322 321 320 322 323 325 326 325 324 321 323 326 331 333 332 333 336
316 316 320 322 318 320 324 338 340 342 341 344 344 342 339 335 336 336 338 335 325 324 328 332 329 329 329 326 323 323 323 323 323 323 323 323 322 322 323 326 326 323 325 329 329 331 335 337 338
317 320 322 316 315 320 334 338 334 339 345 344 340 342 340 339 335 337 339 332 324 324 327 329 329 327 325 324 323 323 323 322 323 323 324 324 324 324 323 321 324 327 324 325 329 332 332 334 337
322 321 322 315 318 317 329 331 337 335 344 342 343 345 343 339 335 336 336 326 324 325 328 327 327 325 324 324 324 324 324 323 322 322 323 323 324 324 324 324 322 321 325 326 325 326 329 330 329
321 322 313 316 316 317 323 326 335 334 340 346 345 345 341 340 336 335 334 326 324 326 328 327 325 324 324 324 325 326 326 324 323 322 322 323 324 325 325 325 324 322 319 322 325 326 330 334 331
320 317 314 315 316 317 323 328 332 332 344 343 343 343 341 341 338 337 336 327 324 324 326 326 325 323 324 324 325 326 327 327 326 324 324 324 325 326 324 320 318 317 316 317 320 322 324 326 332
316 312 316 317 317 319 325 328 336 342 343 344 342 341 343 342 339 339 338 333 324 325 326 326 324 323 323 324 325 326 326 327 327 327 326 325 326 326 321 317 316 315 314 314 317 320 321 321 321
319 312 316 315 317 321 323 337 343 344 344 342 342 341 334 342 341 340 340 335 326 325 326 326 324 323 323 324 324 324 325 326 326 326 326 326 326 327 322 321 318 315 313 313 315 318 319 319 319
319 313 314 317 320 320 320 342 343 343 342 339 340 339 334 337 341 341 340 339 331 326 326 326 323 323 323 324 324 325 324 324 325 325 324 324 326 328 325 323 320 317 313 312 314 316 317 317 325
317 312 317 318 319 318 319 332 344 341 339 338 339 338 334 337 339 340 341 341 342 340 335 326 324 323 323 323 324 324 324 324 324 324 324 324 328 331 332 329 324 322 322 317 317 318 323 328 331
318 315 315 322 321 322 320 324 341 340 340 338 339 338 335 336 337 341 344 340 340 342 341 330 324 323 323 323 324 324 324 324 324 324 324 324 332 334 330 335 327 324 325 329 333 333 332 335 335
319 319 320 322 322 322 320 321 327 339 338 336 337 339 338 336 336 337 337 345 346 342 340 339 335 324 323 323 324 324 324 324 324 324 324 324 332 338 337 335 340 333 332 331 335 336 335 336 332
318 320 321 322 322 322 322 322 320 336 339 338 337 336 340 343 340 340 340 335 341 344 342 341 340 338 336 331 325 327 329 332 329 324 325 325 324 333 337 335 342 342 340 341 338 339 339 338 337
320 320 320 322 322 322 321 321 322 334 342 337 340 342 342 341 340 342 341 338 337 341 340 340 341 338 339 339 339 336 339 341 342 327 334 331 329 330 332 334 339 341 343 343 342 340 340 341 341
321 320 317 320 321 321 322 319 321 324 334 343 343 343 342 341 339 339 338 339 338 341 340 339 340 340 339 339 339 339 340 341 344 339 342 343 342 342 337 332 337 340 341 342 342 343 342 340 343
318 316 316 317 319 321 319 316 318 327 338 341 341 339 338 337 342 342 339 336 339 341 340 338 339 340 340 340 339 340 341 343 346 344 344 344 344 344 344 339 335 336 339 341 341 342 344 344 342
314 317 317 317 317 319 318 319 321 337 341 340 338 337 332 332 335 336 339 343 346 345 342 340 341 341 341 340 340 341 345 347 346 346 345 347 345 346 344 344 342 340 336 340 340 339 341 344 343
319 320 318 318 320 319 322 322 320 341 339 337 335 333 330 329 332 334 337 339 341 344 347 346 343 345 343 344 343 335 336 343 348 348 348 347 346 347 347 345 344 343 341 336 338 338 338 342 343
320 320 319 320 320 322 323 323 338 337 336 334 330 328 328 325 326 327 331 335 337 340 341 345 346 343 342 341 340 329 334 345 344 346 346 346 343 341 344 347 345 343 342 339 339 338 338 337 340
320 321 320 321 320 319 320 321 331 335 333 331 328 325 325 325 325 325 325 328 332 335 338 339 343 344 338 332 330 328 334 338 332 346 346 345 344 343 342 347 346 343 343 343 337 340 340 338 338
319 319 320 322 320 319 318 316 336 333 330 328 326 324 323 324 325 323 321 321 325 328 332 337 340 341 343 346 346 342 346 347 347 346 344 344 344 347 347 345 345 345 342 343 343 341 339 340 340
320 320 320 320 317 318 316 315 333 333 330 327 325 323 323 324 323 323 323 323 323 325 329 332 334 337 338 339 340 341 343 344 342 342 343 344 343 342 342 342 335 330 331 338 333 329 339 341 339
322 320 320 320 318 315 315 313 319 331 331 328 326 325 321 319 320 322 325 326 325 324 326 327 327 329 329 331 333 336 337 334 333 334 337 338 339 340 340 338 338 334 333 331 329 339 338 335 332
320 320 318 315 313 315 316 315 322 331 330 327 326 326 324 321 321 322 323 325 325 324 325 324 324 325 323 322 322 323 325 325 327 327 330 333 336 337 338 336 334 330 332 334 339 339 330 333 335
317 316 316 316 316 318 318 324 324 330 328 327 325 326 325 322 320 319 320 323 324 323 322 321 320 320 319 319 318 317 315 315 316 316 318 325 330 333 334 334 334 335 335 334 336 337 333 339 337
320 316 316 319 318 320 321 332 328 328 327 326 326 324 324 322 321 319 319 320 320 319 319 318 318 317 316 315 313 313 312 311 311 312 312 311 314 321 323 328 330 331 332 332 333 331 331 331 331
320 317 316 318 318 317 320 328 327 326 326 325 324 324 322 321 321 320 317 319 318 318 318 317 317 315 313 310 309 309 308 307 306 306 307 310 311 313 320 324 323 324 325 325 328 329 331 333 333
318 317 318 314 321 323 319 326 327 329 327 325 325 324 324 323 322 322 320 320 319 318 318 316 315 313 310 310 311 311 311 311 310 309 308 307 308 309 311 319 323 324 325 325 326 326 326 326 328
316 318 318 314 317 319 320 320 323 323 326 326 325 326 326 325 323 323 321 320 319 319 318 316 316 312 310 311 312 312 312 311 310 309 308 307 307 306 308 311 311 316 323 325 323 325 324 324 325
320 320 316 317 318 319 320 319 322 321 321 325 326 326 326 325 324 323 322 320 321 320 319 316 315 313 312 313 313 313 313 312 312 310 310 310 309 308 309 309 309 311 313 314 318 318 321 323 323
Wind_Speed
9 7 8 6 4 4 3 5 2 13 5 25 13 7 7 4 4 5 24 28 31 27 27 24 20 17 15 15 16 16 16 16 16 16 15 14 12 11 11 12 12 13 16 17 18 18 17 17 17
5 3 4 1 4 2 5 4 9 15 19 18 14 1 10 4 11 20 34 28 29 27 27 24 21 19 17 15 15 15 15 15 15 15 14 13 12 11 10 11 11 12 14 15 16 16 17 16 13
4 4 2 4 3 4 5 6 8 11 26 24 8 10 7 5 16 34 24 35 31 28 27 25 21 20 18 17 16 15 14 14 14 13 12 11 10 9 9 9 10 11 12 13 14 15 15 12 10
4 0 1 4 4 8 8 9 6 10 15 3 20 7 10 5 26 22 31 34 31 29 27 24 21 20 19 18 16 15 14 13 13 12 12 10 9 8 8 7 7 9 11 12 12 12 13 11 9
6 0 4 1 5 7 10 25 10 6 12 7 13 4 4 12 15 24 29 30 29 30 27 24 21 20 19 18 17 15 14 13 12 11 11 10 9 7 7 7 7 7 9 11 11 11 11 10 9
3 1 4 3 6 6 7 12 8 15 22 20 17 8 5 15 17 29 25 28 25 26 26 23 21 19 19 18 17 16 14 13 12 11 11 10 8 7 6 5 5 7 8 11 11 11 11 10 10
4 4 3 4 6 7 5 9 8 15 10 6 16 5 13 22 23 24 21 21 24 24 24 23 22 20 18 18 17 16 14 13 12 11 10 10 8 7 6 5 4 4 6 8 11 11 11 10 10
2 4 5 3 5 6 13 11 9 24 9 21 4 6 9 24 22 20 15 18 26 24 22 22 22 21 20 18 16 15 14 13 11 11 10 9 9 7 7 6 4 4 5 6 8 10 10 10 10
3 4 3 4 4 4 12 7 18 15 22 13 12 24 27 25 23 21 20 20 21 21 21 20 20 20 18 17 16 15 13 12 11 10 9 8 8 9 7 6 5 5 5 5 7 9 10 11 12
3 4 6 4 4 4 13 6 9 10 21 18 23 19 33 31 26 21 21 22 20 18 18 20 19 19 18 17 16 14 13 13 12 11 10 9 9 9 7 6 6 6 7 8 10 12 13 11 10
1 5 5 3 5 14 10 11 2 19 4 25 26 27 33 32 27 19 21 19 15 13 12 14 18 18 19 18 16 15 14 13 12 12 12 11 12 12 9 8 8 8 10 11 11 11 11 8 7
2 9 7 7 6 5 4 7 3 15 17 17 18 21 21 22 17 12 7 17 21 18 14 10 11 18 20 18 18 17 16 15 15 14 14 15 14 14 11 8 8 7 7 9 8 7 7 5 9
2 2 3 5 5 4 2 6 7 11 19 15 15 14 16 15 14 11 5 13 16 20 16 16 15 15 14 15 18 16 15 14 16 17 16 17 18 17 12 8 10 9 8 7 9 9 5 3 6
6 3 5 4 5 2 4 2 5 11 19 21 22 23 17 12 8 9 9 17 7 12 14 21 21 22 20 15 13 15 14 14 15 18 16 16 16 18 17 14 13 13 13 13 13 12 12 7 6
3 4 7 5 2 2 1 6 3 10 25 31 32 30 28 21 14 11 9 14 22 22 27 15 23 27 27 23 18 16 20 18 18 16 15 14 15 15 18 20 18 16 15 15 15 17 18 18 12
6 5 4 6 3 4 4 8 9 18 34 29 35 32 30 28 22 16 8 9 16 25 26 22 15 25 30 26 28 27 27 26 22 20 20 22 20 22 19 21 22 19 20 19 19 18 17 15 18
7 3 4 10 9 5 4 4 22 41 43 28 29 31 30 28 24 19 16 11 6 9 15 20 18 18 29 32 28 26 23 25 31 26 26 26 28 25 28 25 24 21 24 25 22 20 17 19 19
4 3 5 5 2 6 3 1 9 23 29 26 25 26 27 31 26 21 21 16 12 7 10 12 18 16 24 22 28 28 38 31 26 28 27 25 25 23 29 32 30 26 24 28 27 25 23 23 25
3 2 5 6 6 5 2 3 13 18 22 16 20 28 28 29 28 26 26 24 17 13 8 7 19 22 26 26 29 30 28 26 29 35 38 32 30 31 33 29 35 35 29 28 28 26 24 26 27
7 6 6 4 8 5 3 6 8 11 12 15 17 21 23 23 23 24 25 26 24 20 15 6 3 7 15 21 23 25 26 27 28 32 31 34 36 35 33 31 31 30 29 26 27 26 24 27 26
4 7 4 1 5 2 2 4 6 9 16 17 19 20 21 21 22 22 23 22 20 20 18 12 8 4 5 7 12 20 25 26 30 28 30 30 30 32 30 24 17 22 25 23 31 29 28 26 22
4 1 5 5 5 2 4 3 1 7 6 11 14 17 19 19 19 19 18 20 21 20 16 14 12 11 10 9 10 9 9 14 15 18 22 29 31 28 25 29 21 35 43 38 38 34 28 24 15
4 1 3 1 3 4 6 3 3 9 2 1 7 13 15 15 15 14 13 14 15 15 15 14 13 13 14 14 13 12 11 11 12 13 18 23 21 18 18 9 13 28 30 32 30 20 21 9 9
2 5 8 6 4 2 2 5 5 5 6 4 7 9 11 12 11 11 10 8 7 9 10 11 13 14 16 17 17 16 14 12 12 12 13 11 11 12 10 4 15 17 21 17 21 20 23 32 23
9 7 4 5 4 6 5 4 2 8 12 12 14 13 10 8 8 8 8 6 6 5 5 8 11 14 16 17 16 17 16 16 17 18 15 13 10 6 7 4 6 6 5 11 19 28 35 29 36
3 6 5 4 3 5 6 1 3 10 21 22 20 16 10 6 5 5 6 6 3 1 2 6 10 11 12 13 13 14 15 16 17 17 18 16 14 12 9 6 8 6 5 4 7 14 16 14 24
3 2 5 4 2 2 1 3 4 6 8 14 20 17 13 9 7 4 4 3 2 2 2 6 7 8 8 9 11 13 14 15 16 16 13 11 10 9 6 5 4 5 5 6 4 4 3 6 12
5 4 3 3 2 3 4 4 4 10 11 8 13 20 17 15 15 13 10 7 5 1 3 4 3 3 5 8 11 13 16 18 18 17 17 15 12 9 7 3 2 3 5 5 5 4 5 3 6
4 2 5 4 4 4 2 5 5 8 12 14 19 27 25 21 19 16 14 12 7 2 3 3 1 1 3 4 6 11 13 16 19 20 21 20 17 14 12 10 8 5 4 3 8 9 8 6 5
2 3 4 5 5 1 4 5 4 10 16 24 28 29 26 23 20 20 18 14 10 5 2 1 2 2 2 5 7 10 13 17 18 20 22 23 21 18 16 15 13 10 10 12 8 8 8 9 8
Wind_Direction
308 293 291 296 52 62 262 223 208 184 211 237 267 265 130 104 125 166 144 162 164 157 153 157 152 149 148 142 139 137 131 128 124 120 121 124 126 126 124 122 119 120 126 128 128 126 125 125 121
316 279 247 252 94 52 272 197 191 191 217 167 177 101 61 70 117 146 156 164 164 159 155 159 155 151 149 144 141 140 137 134 132 129 129 129 129 128 132 134 133 134 140 142 142 140 139 135 131
329 271 192 130 126 188 236 222 180 188 186 175 135 100 81 101 134 147 165 163 164 160 157 159 158 153 149 146 143 141 142 139 137 136 135 135 135 134 135 140 148 151 154 156 155 155 152 147 145
338 339 93 74 276 263 232 258 199 173 213 214 126 67 94 143 144 158 159 161 164 159 159 160 159 155 151 146 144 143 142 142 140 139 139 139 139 140 143 147 155 165 169 170 170 175 181 186 179
338 296 54 332 253 265 259 249 177 156 183 155 122 94 64 150 164 160 160 164 169 160 161 160 161 157 153 149 146 146 142 139 136 135 135 135 137 140 147 156 162 173 182 183 184 184 185 184 179
331 72 47 308 265 271 249 236 73 109 115 115 97 86 51 149 166 158 160 163 175 165 163 162 164 162 158 156 154 153 149 145 141 135 129 126 128 131 138 152 163 172 182 189 192 194 194 191 188
127 78 214 268 286 308 307 46 91 103 133 46 124 95 143 152 154 152 155 167 179 174 168 167 168 168 167 165 163 162 156 154 147 141 136 131 128 127 128 135 146 163 178 187 190 193 197 198 191
12 99 333 326 323 355 354 69 85 105 96 118 102 132 157 156 151 151 150 170 177 181 178 175 175 176 176 174 174 173 167 166 163 156 149 144 139 135 135 128 128 141 164 178 186 187 186 187 189
223 63 326 287 324 294 359 70 73 100 93 74 102 141 156 156 167 166 165 163 172 183 189 188 187 185 185 186 184 187 184 181 181 176 167 163 153 148 136 132 123 119 127 153 163 169 168 168 172
82 98 216 227 255 39 46 74 99 100 99 99 122 136 158 162 177 178 178 179 178 182 192 203 200 196 195 199 202 202 203 202 201 199 194 187 179 167 155 143 143 136 126 127 137 145 153 162 168
205 195 151 251 60 43 28 62 97 114 34 151 155 154 165 159 162 174 189 202 203 197 198 201 215 216 214 215 213 216 220 223 224 221 217 213 205 194 173 157 161 160 149 143 145 151 161 180 212
277 248 220 182 81 58 40 101 72 137 160 153 172 158 142 148 140 131 128 215 214 208 217 224 224 228 228 227 228 231 231 236 238 236 234 232 227 227 213 182 165 168 172 182 185 185 191 214 225
163 291 98 96 88 73 115 317 136 167 159 153 111 106 98 103 120 129 114 191 218 228 228 226 232 230 233 234 238 235 236 248 259 253 248 245 244 243 236 213 203 203 204 205 207 209 206 207 224
311 95 33 17 10 339 144 224 91 185 153 103 114 97 104 112 142 169 116 136 165 189 227 233 233 230 234 240 249 240 247 258 269 251 253 245 247 251 253 239 229 232 237 235 249 242 236 224 236
303 16 0 313 298 289 104 345 233 173 109 102 102 92 84 89 121 151 198 204 200 236 249 229 225 228 234 242 255 261 259 258 265 257 249 247 247 256 254 256 245 241 250 246 258 260 256 248 243
15 48 27 292 84 227 99 282 289 145 120 105 104 98 88 80 85 92 115 194 237 259 237 235 229 242 230 239 236 238 241 256 261 266 262 260 259 259 255 257 253 252 251 251 253 263 256 257 247
3 255 246 299 209 142 109 276 51 124 122 119 113 108 99 90 90 97 103 112 90 224 225 230 251 239 227 234 231 249 251 249 259 263 263 267 258 261 256 258 258 265 250 251 254 262 258 252 251
273 316 279 218 227 75 88 53 68 117 120 121 118 115 107 101 98 91 91 89 93 92 210 204 215 216 214 234 235 267 256 247 254 259 259 258 259 264 261 259 260 262 263 247 250 255 263 265 266
240 6 20 15 0 98 114 41 116 104 99 99 112 122 126 115 105 91 85 81 77 86 100 181 207 217 229 241 245 260 244 259 262 274 266 260 262 267 265 271 257 254 257 255 252 254 266 268 269
33 56 356 341 4 74 32 53 104 85 86 100 89 81 85 86 82 75 70 66 64 62 62 60 312 249 248 239 242 259 255 255 268 272 268 259 256 258 258 257 249 249 260 265 253 254 255 260 269
31 80 67 96 309 50 108 0 102 68 85 87 84 84 77 72 70 63 50 46 45 43 42 46 53 31 0 312 285 260 260 262 261 274 275 266 255 255 255 253 250 253 266 272 270 252 250 262 259
76 350 53 22 61 261 77 267 141 110 60 68 76 73 72 66 61 56 51 46 42 41 35 32 36 35 29 13 346 336 325 312 326 322 314 304 304 302 271 269 301 273 278 273 297 280 263 255 274
183 42 24 323 20 45 352 70 292 115 92 106 100 84 74 72 63 62 57 51 47 47 43 33 29 40 38 30 26 13 9 9 2 349 329 320 328 328 329 292 230 238 245 259 270 238 246 298 300
317 27 17 35 77 3 221 180 211 195 177 152 135 117 98 89 81 77 63 62 61 43 35 22 17 18 22 11 9 11 18 15 5 9 17 11 355 347 329 235 209 243 262 270 238 228 278 265 254
64 58 355 354 7 223 297 71 246 123 139 159 166 165 144 116 86 76 81 89 75 52 12 5 8 2 5 13 15 19 19 14 18 19 14 9 15 4 355 333 238 283 290 274 260 258 254 255 259
72 134 150 224 229 274 335 146 201 154 162 164 163 160 155 140 95 88 83 85 92 131 315 353 0 15 25 30 33 29 26 24 24 25 24 24 24 22 11 334 305 312 304 358 316 264 255 242 232
312 9 177 127 322 74 204 69 45 158 165 165 167 171 179 180 185 167 179 172 181 219 345 357 11 35 41 48 51 52 52 48 42 36 30 26 22 25 16 18 1 350 322 7 5 21 357 292 276
149 173 41 7 201 239 286 208 218 189 186 188 186 194 200 207 210 209 206 200 199 225 346 1 41 44 76 72 62 52 42 34 30 26 28 28 23 15 6 5 1 320 325 357 12 13 20 339 301
6 38 65 115 139 167 311 280 235 180 189 194 203 207 209 216 217 216 210 209 214 214 340 302 290 112 99 79 38 14 19 16 16 20 23 18 13 11 5 355 343 337 332 311 279 295 300 319 288
144 130 114 117 276 131 152 269 234 187 188 196 211 213 219 222 226 221 211 216 231 228 257 272 209 199 276 326 350 15 13 15 20 23 23 21 18 15 14 8 353 329 319 323 321 327 317 301 310